Location: Devore Heights
(34.2372°N, 117.4156°W)
Time: 19:48:16
(UTC+00:00)

Vanguard 1 Rocket - Pass Details

Date: 18 September 2024
Orbit: 650 x 4218 km, 34.3° (Epoch: 04 October)

Event Time Altitude Azimuth Distance (km) Brightness Sun altitude
Rises 08:52:09 0° 215° (SW) 4,202 - -50.7°
Reaches altitude 10° 08:54:37 10° 208° (SSW) 3,550 - -50.5°
Maximum altitude 09:03:33 44° 139° (SE) 2,801 - -49.5°
Exits shadow 09:06:41 39° 112° (ESE) 3,262 10.0 -49.2°
Drops below altitude 10° 09:20:04 10° 76° (ENE) 6,402 12.1 -47.6°
Sets 09:26:25 0° 71° (ENE) 7,886 12.7 -46.8°
